Teterboro, NJ

6:11 AM EST on December 03, 2016 (GMT -0500)
Teterboro

Weather History for KTEB - November, 2012

Change the Weather History Date:

Thursday, November 15, 2012

  Actual Average Record
Temperature  
Mean Temperature 40 °F -  
Max Temperature 46 °F 51 °F 69 °F (2008)
Min Temperature 35 °F 35 °F 24 °F (1996)
Degree Days  
Heating Degree Days 24    
Moisture  
Dew Point 25 °F    
Average Humidity 55    
Maximum Humidity 67    
Minimum Humidity 39    
Precipitation  
Precipitation 0.00 in - - ()
Sea Level Pressure  
Sea Level Pressure 30.39 in    
Wind  
Wind Speed 4 mph (NNE)    
Max Wind Speed 7 mph    
Max Gust Speed -    
Visibility 10 miles    
Events      
Averages and records for this station are not official NWS values.
T = Trace of Precipitation, MM = Missing Value Source: NWS Daily Summary

Daily Weather History Graph

Daily Weather History Graph

Search for Another Location

Airport or City:

Trip Planner

Search our weather history database for the weather conditions in past years. The results will help you decide how hot, cold, wet, or windy it might be!

Date:

Astronomy

Nov. 15, 2012 Rise Set
Actual Time 6:43 AM EST 4:37 PM EST
Civil Twilight 6:14 AM EST 5:06 PM EST
Nautical Twilight 5:41 AM EST 5:40 PM EST
Astronomical Twilight 5:08 AM EST 6:12 PM EST
Moon 8:37 AM EST (11/15) 6:25 PM EST (11/15)
Length of Visible Light 10h 52m
Length of Day
9h 53m
Waxing Crescent, 5% of the Moon is Illuminated
Nov 15
Waxing Crescent
Nov 20
First Quarter
Nov 28
Full
Dec 6
Last Quarter
Dec 13
New

Hourly Weather History & Observations

Time (EST) Temp. Windchill Dew Point Humidity Pressure Visibility Wind Dir Wind Speed Gust Speed Precip Events Conditions
12:51 AM 35.1 °F 32.2 °F 24.1 °F 64% 30.47 in 10.0 mi North 3.5 mph - N/A   Clear
1:51 AM 36.0 °F 33.3 °F 24.1 °F 62% 30.44 in 10.0 mi North 3.5 mph - N/A   Clear
2:51 AM 35.1 °F 32.2 °F 24.1 °F 64% 30.45 in 10.0 mi North 3.5 mph - N/A   Clear
3:51 AM 35.1 °F 31.0 °F 24.1 °F 64% 30.43 in 10.0 mi North 4.6 mph - N/A   Clear
4:51 AM 36.0 °F 32.1 °F 24.1 °F 62% 30.44 in 10.0 mi NNE 4.6 mph - N/A   Clear
5:51 AM 35.1 °F - 24.1 °F 64% 30.43 in 10.0 mi Calm Calm - N/A   Clear
6:51 AM 35.1 °F 31.0 °F 24.1 °F 64% 30.45 in 10.0 mi North 4.6 mph - N/A   Clear
7:51 AM 37.0 °F 31.6 °F 26.1 °F 65% 30.45 in 10.0 mi NNE 6.9 mph - N/A   Clear
8:51 AM 41.0 °F 36.4 °F 27.0 °F 57% 30.43 in 10.0 mi NNE 6.9 mph - N/A   Clear
9:51 AM 42.1 °F 38.4 °F 28.0 °F 58% 30.43 in 10.0 mi ENE 5.8 mph - N/A   Clear
10:51 AM 43.0 °F 38.8 °F 26.1 °F 51% 30.42 in 10.0 mi East 6.9 mph - N/A   Clear
11:51 AM 44.1 °F 40.8 °F 27.0 °F 51% 30.39 in 10.0 mi NNW 5.8 mph - N/A   Clear
12:51 PM 45.0 °F 41.8 °F 25.0 °F 46% 30.35 in 10.0 mi NE 5.8 mph - N/A   Clear
1:51 PM 45.0 °F 42.6 °F 23.0 °F 42% 30.36 in 10.0 mi NNE 4.6 mph - N/A   Clear
2:51 PM 46.9 °F - 23.0 °F 39% 30.35 in 10.0 mi Variable 3.5 mph - N/A   Clear
3:51 PM 46.0 °F 43.9 °F 23.0 °F 40% 30.34 in 10.0 mi NNE 4.6 mph - N/A   Clear
4:51 PM 44.1 °F 42.5 °F 23.0 °F 43% 30.34 in 10.0 mi ENE 3.5 mph - N/A   Clear
5:51 PM 43.0 °F 41.3 °F 24.1 °F 47% 30.34 in 10.0 mi NNE 3.5 mph - N/A   Clear
6:51 PM 42.1 °F - 23.0 °F 47% 30.35 in 10.0 mi Calm Calm - N/A   Clear
7:51 PM 41.0 °F 39.0 °F 24.1 °F 51% 30.33 in 10.0 mi NNE 3.5 mph - N/A   Clear
8:51 PM 41.0 °F - 23.0 °F 49% 30.33 in 10.0 mi Calm Calm - N/A   Clear
9:51 PM 39.0 °F 36.8 °F 24.1 °F 55% 30.32 in 10.0 mi North 3.5 mph - N/A   Clear
10:51 PM 37.0 °F 34.5 °F 26.1 °F 65% 30.31 in 10.0 mi NNW 3.5 mph - N/A   Clear
11:51 PM 36.0 °F 33.3 °F 26.1 °F 67% 30.31 in 10.0 mi NW 3.5 mph - N/A   Clear